Home > Weather > Yaren > Past weeks

Flag for Nauru Weather for the Past 2 Weeks in Yaren, Nauru

Now
79 °F

Cloudy.


Feels Like: 83 °F
Forecast: 81 / 86 °F
Wind: 14 mph from Northeast

Location: Majuro Atoll

Current Time: Feb 14, 2016 at 12:55:33 PM

Latest Report: Feb 14, 2016 at 11:55 AM


Visibility: 15 mi

Pressure: 29.81 "Hg

Humidity: 94%

Dew point: 77 °F

Location of YarenLocation

Historic Weather in Yaren — Graph

°F

Yaren Temperature Yesterday

Maximum temperature yesterday: 88 °F (at 1:54 PM)
Minimum temperature yesterday: 80 °F (at 8:51 PM)
Average temperature yesterday: 83 °F

High & Low Weather Summary for the Past Weeks

 TemperatureHumidityPressure
High88 °F (Feb 13, 1:54 PM)92% (Feb 10, 5:54 PM)29.93 "Hg (Feb 10, 5:54 PM)
Low78 °F (Feb 7, 6:54 PM)60% (Feb 1, 2:50 PM)29.71 "Hg (Feb 9, 2:50 PM)
Average83 °F75%29.81 "Hg
* Reported Jan 30 10:50 AM — Feb 14 10:55 AM, Yaren, Weather by CustomWeather, © 2016

Note: Actual official high and low records may vary slightly from our data, if they occured in-between our weather recording intervals... More about our weather records

Advertising

Yaren Weather History for the Previous 24 Hours

 ConditionsComfort  
Time TempWeatherWind HumidityBarometerVisibility
10:55 AM
Sun, Feb 14
81 °FCloudy.14 mph89%29.83 "Hg15 mi
9:53 AM81 °FCloudy.12 mph90%29.83 "Hg15 mi
8:51 AM80 °FSprinkles. Cloudy.12 mph91%29.83 "Hg10 mi
7:56 AM81 °FCloudy.12 mph89%29.82 "Hg15 mi
6:54 AM80 °FOvercast.12 mph89%29.80 "Hg15 mi
5:53 AM80 °FOvercast.12 mph89%29.78 "Hg15 mi
4:52 AM80 °FSprinkles. Overcast.20 mph90%29.77 "Hg10 mi
3:52 AM82 °FOvercast.12 mph84%29.76 "Hg15 mi
2:54 AM82 °FOvercast.9 mph84%29.76 "Hg15 mi
1:53 AM82 °FOvercast.10 mph86%29.78 "Hg15 mi
12:52 AM81 °FOvercast.13 mph86%29.80 "Hg15 mi
11:53 PM
Sat, Feb 13
82 °FMostly cloudy.12 mph84%29.81 "Hg15 mi
10:51 PM82 °FMostly cloudy.15 mph83%29.82 "Hg15 mi
9:50 PM82 °FMostly cloudy.13 mph85%29.83 "Hg15 mi
8:51 PM80 °FOvercast.13 mph89%29.82 "Hg15 mi
7:51 PM82 °FMostly cloudy.12 mph84%29.80 "Hg15 mi
6:50 PM82 °FMore clouds than sun.10 mph84%29.78 "Hg15 mi
5:52 PM81 °FMore clouds than sun.8 mph86%29.76 "Hg15 mi
4:52 PM84 °FMore clouds than sun.8 mph81%29.75 "Hg15 mi
3:52 PM82 °FMore clouds than sun.12 mph87%29.74 "Hg15 mi
2:51 PM85 °FMore clouds than sun.9 mph76%29.75 "Hg15 mi
1:54 PM88 °FMore clouds than sun.7 mph73%29.76 "Hg20 mi
12:50 PM87 °FCloudy.8 mph73%29.79 "Hg20 mi
Weather by CustomWeather, © 2016

See weather overviewHow to use our weather pages